RH
20 18 17 16 15 17 23 23 22 22 23 25 26 29 31 33 34 34 34 36 38 40 39 38 36 33 32 30 29 30 28 27 26 25 26 26 26 28 32 35 36 37 38 38 37 36 34 32 33 33 33 32 32 34 40 49 52 52 52 53 53 53 53 52 52 51 51 52 51 50 49 48 48 47 44 45 47 45 37 26 21 27 42 60 70
17 16 16 16 17 20 22 22 22 22 24 27 30 34 38 38 37 35 33 34 36 39 42 45 45 43 41 38 34 32 32 31 31 29 28 29 29 30 33 35 37 38 39 39 39 38 36 33 33 35 38 39 39 37 35 41 48 51 52 52 52 52 52 51 50 50 52 53 52 53 54 49 45 44 44 41 39 39 38 34 28 24 25 35 50
16 16 17 17 18 21 22 21 21 23 26 30 34 37 38 37 35 34 33 33 33 33 37 41 44 47 48 46 42 37 36 35 34 34 32 33 33 33 33 35 36 37 37 38 40 39 37 35 34 35 38 42 46 46 43 42 43 47 51 52 52 51 51 51 50 50 51 51 53 62 64 57 53 49 46 44 41 41 41 43 45 41 32 27 31
18 18 18 18 21 22 21 21 24 27 31 34 37 37 35 34 33 34 35 35 34 34 35 37 38 42 42 42 45 43 41 40 37 35 35 35 35 35 34 34 34 33 33 36 39 39 38 37 36 35 37 43 48 49 49 49 47 46 48 51 51 51 50 51 52 50 51 53 59 68 63 58 62 61 57 50 44 46 46 48 57 56 50 45 40
18 20 19 18 21 22 20 24 29 31 34 35 37 37 35 34 32 33 37 38 39 38 38 43 49 50 43 37 39 44 48 49 47 43 38 35 35 34 33 33 32 31 33 36 37 36 36 37 38 37 37 41 46 47 46 47 49 47 47 48 50 51 50 50 53 52 53 54 60 67 66 67 69 65 65 60 55 61 59 54 60 63 66 67 63
17 20 19 17 19 23 23 28 32 34 37 36 35 36 36 36 34 35 37 40 44 42 40 52 63 66 62 48 40 49 59 61 58 56 52 48 45 43 41 38 35 34 35 36 36 34 33 35 37 39 38 39 42 44 44 44 47 47 46 47 49 51 51 50 52 53 54 54 56 63 66 71 73 70 78 78 69 69 70 70 68 64 67 73 75
19 20 18 18 19 24 29 31 33 35 37 36 34 36 38 38 37 38 39 41 45 43 41 53 63 67 72 66 59 64 67 65 63 63 62 60 58 55 51 47 42 40 40 38 38 36 34 34 36 39 40 38 39 41 43 44 47 51 52 52 50 50 52 53 53 52 55 56 56 60 62 65 69 71 78 85 80 71 69 74 71 66 68 69 72
20 21 19 19 21 25 31 32 31 32 33 34 36 38 39 39 39 39 41 42 45 43 41 49 59 66 70 69 69 70 67 66 66 64 63 62 60 58 54 51 47 45 44 42 41 40 39 37 36 38 40 39 38 39 42 46 47 50 53 55 53 52 52 56 56 55 58 60 57 59 62 63 65 66 66 71 80 80 74 66 56 62 75 74 71
18 21 20 21 25 30 32 31 30 31 32 35 39 40 39 38 39 41 42 43 44 43 43 46 50 57 62 61 60 60 61 63 64 63 62 62 62 60 58 56 54 51 49 47 45 43 41 40 39 38 38 38 38 36 39 46 50 49 49 51 56 57 54 56 59 58 59 63 63 63 63 62 63 63 62 62 70 79 81 72 55 55 65 62 59
20 19 20 25 31 34 33 30 30 33 36 38 38 38 37 38 41 43 44 44 45 45 47 48 48 50 54 55 52 52 55 59 60 59 59 59 59 59 59 58 56 54 52 49 47 45 43 42 40 39 38 37 38 37 36 41 49 53 52 50 56 61 59 57 62 62 60 60 64 67 64 64 67 67 66 66 69 75 79 77 65 60 62 55 51
23 20 23 29 33 33 31 30 32 36 39 38 36 35 37 41 43 44 44 44 46 48 49 49 49 48 49 50 50 50 51 53 53 53 53 53 54 54 54 54 53 51 49 47 45 44 43 42 41 40 39 38 39 39 36 36 44 53 55 50 49 57 61 61 64 65 63 58 57 62 61 61 66 70 67 66 71 76 78 79 70 61 63 58 50
23 23 28 32 32 31 30 30 34 38 39 37 35 37 41 43 43 43 44 43 43 47 49 48 47 46 46 47 48 48 49 49 47 46 46 47 48 49 49 49 48 47 46 44 43 42 41 41 41 40 40 40 40 40 38 37 43 52 59 58 54 57 62 67 70 70 66 58 52 54 55 54 57 62 63 63 67 69 72 79 71 60 62 60 49
24 26 30 31 30 31 30 31 36 39 37 35 35 40 43 42 40 40 42 43 43 45 47 47 46 45 45 46 48 48 48 46 45 45 46 46 47 48 48 48 47 45 44 43 42 42 43 43 44 45 45 44 43 42 42 39 42 53 65 69 66 65 64 65 71 75 69 58 51 50 51 51 52 55 57 59 63 64 69 79 75 67 70 68 58
26 28 30 30 30 31 30 33 37 39 36 34 35 40 42 40 38 38 41 44 45 46 46 47 47 47 47 49 50 50 49 48 49 51 52 52 51 50 50 49 49 48 46 46 45 45 46 47 48 49 49 49 48 46 47 48 52 62 72 73 70 70 68 64 65 70 68 58 50 49 50 50 49 49 50 51 55 60 67 75 75 74 74 70 65
26 29 29 28 29 30 31 33 36 36 34 34 36 39 40 39 38 37 40 44 46 47 47 47 47 47 49 50 50 50 51 53 54 54 54 52 51 51 51 51 51 52 51 50 49 47 46 44 45 49 52 54 54 51 51 54 58 63 68 69 68 68 71 69 66 65 62 54 50 51 52 50 47 46 45 46 50 55 61 65 70 79 81 76 70
26 28 29 29 29 30 32 32 35 34 34 37 39 40 39 39 39 39 41 45 46 47 46 46 47 48 49 48 48 49 51 52 52 51 51 50 49 50 51 51 51 51 51 50 48 44 42 41 41 47 52 54 53 51 50 54 58 61 64 66 63 64 69 71 69 68 62 54 50 51 52 52 51 49 46 45 44 47 53 58 65 77 85 84 78
27 28 30 30 29 32 33 33 34 34 36 38 39 41 39 37 39 42 44 46 46 47 46 46 46 47 47 46 47 48 49 49 49 48 48 48 48 48 48 48 48 47 48 47 46 44 43 42 41 43 46 49 50 48 48 52 56 59 61 61 57 57 64 69 70 71 67 59 53 50 51 51 51 51 49 48 45 43 44 49 57 68 79 85 84
28 29 29 29 29 34 34 33 34 34 37 38 37 39 38 37 40 43 46 46 46 46 46 46 46 45 46 46 47 48 48 48 48 48 49 48 48 47 47 47 47 47 47 47 48 47 45 44 43 42 43 45 47 47 47 47 49 50 50 51 50 50 56 63 68 70 69 64 58 52 50 49 49 50 50 50 48 46 44 43 47 54 66 79 83
28 29 29 29 30 34 35 34 34 35 37 37 38 39 38 40 44 46 46 46 46 46 45 45 45 44 45 46 47 47 47 49 49 49 48 48 49 49 50 51 50 50 51 51 51 50 49 48 47 46 44 43 43 44 44 44 43 44 44 43 44 44 47 52 60 66 68 67 63 57 53 51 51 51 52 54 54 52 50 47 45 45 53 68 76
27 28 30 30 31 33 33 35 36 36 37 37 38 38 39 42 45 46 46 46 46 45 44 45 44 44 46 46 47 48 49 49 49 49 50 51 52 54 54 55 56 56 57 57 56 54 53 52 51 51 49 47 45 43 42 42 40 40 40 41 41 40 41 44 49 58 63 66 65 61 57 53 52 52 52 53 55 56 57 56 54 50 51 59 68
28 29 29 31 34 34 34 36 37 36 37 37 37 38 40 44 45 46 47 47 46 45 45 45 44 45 46 47 48 49 50 50 50 51 53 54 55 56 57 59 61 64 65 64 64 61 58 56 55 54 53 51 50 47 45 43 42 41 39 39 39 38 38 39 41 46 53 60 63 61 59 54 51 52 52 52 53 56 59 59 60 60 57 57 63
29 30 28 30 34 35 35 36 37 37 37 38 38 39 42 46 47 47 48 47 46 45 45 45 45 46 48 48 50 51 50 51 52 53 54 56 58 58 59 62 65 69 71 71 70 68 65 62 59 58 57 56 54 53 51 49 46 45 43 42 41 40 39 38 38 39 42 49 55 57 57 56 53 52 52 52 53 55 59 61 61 63 64 60 60
29 29 29 31 32 34 37 37 38 38 37 38 39 40 44 47 48 49 48 47 46 46 47 46 47 49 50 51 51 51 52 52 53 55 56 58 60 62 64 67 70 73 75 75 75 73 71 69 66 62 60 59 57 56 55 54 52 50 48 47 45 44 43 42 41 40 39 42 48 52 53 53 56 57 57 56 56 57 58 62 65 66 69 67 63
28 29 29 31 33 35 38 38 38 38 38 39 40 43 46 47 49 48 47 47 47 47 48 49 50 51 52 53 52 52 52 53 54 56 59 62 65 68 70 72 74 76 78 79 79 78 77 75 73 69 65 62 59 58 57 56 55 54 54 53 51 51 51 51 51 50 48 45 46 51 55 54 55 58 60 61 62 64 63 64 68 71 72 73 71
28 29 30 34 36 37 38 38 39 40 40 40 41 45 48 49 49 48 47 48 48 49 50 51 53 53 53 53 52 52 53 54 57 59 63 67 70 73 76 77 78 80 81 83 83 83 83 81 79 76 73 70 66 64 63 61 59 58 57 57 58 59 59 60 61 61 61 60 56 55 55 57 58 60 63 64 64 69 73 72 70 71 73 73 73
29 31 33 36 37 38 39 38 40 41 41 42 44 48 50 50 49 48 48 50 50 51 53 54 55 54 54 54 52 53 54 56 60 63 67 71 74 77 80 81 83 84 86 88 88 88 89 87 86 84 81 80 76 73 70 67 65 62 61 61 61 63 63 61 61 60 61 63 63 60 57 57 62 65 68 70 70 73 79 82 80 78 77 77 76
29 33 36 39 40 40 41 41 42 41 40 43 47 50 51 50 49 49 50 51 51 54 55 56 56 55 54 53 53 54 57 60 63 66 70 74 77 81 84 86 88 90 92 93 93 93 93 92 92 91 88 87 84 82 79 75 72 68 66 64 63 64 65 64 66 70 72 68 65 66 66 65 68 74 78 80 80 80 80 80 81 80 78 78 81
31 35 40 44 43 41 41 43 44 43 43 45 49 52 53 51 50 50 51 53 54 56 56 56 56 55 54 54 55 58 61 63 66 69 72 77 81 85 89 92 94 96 97 98 97 98 98 97 97 96 95 94 91 90 88 84 81 77 73 71 69 68 68 67 68 75 82 83 80 79 79 76 76 83 92 94 90 88 84 77 76 81 83 84 86
34 37 41 45 44 42 42 42 44 46 46 48 51 54 53 51 51 52 53 55 57 57 56 56 56 55 55 56 59 62 64 66 69 72 76 82 86 89 93 96 98 100 100 100 100 100 100 99 100 99 99 98 97 95 93 91 89 86 82 79 77 76 75 74 70 69 74 79 80 79 78 77 77 80 88 93 92 94 95 91 89 92 94 94 94
37 39 41 44 44 44 43 41 43 46 48 50 53 54 53 52 53 54 55 58 57 56 56 56 55 55 57 60 63 65 67 69 73 77 82 87 90 93 96 98 100 101 100 100 100 100 100 100 100 100 99 99 100 99 98 96 95 94 90 86 82 80 78 78 75 71 73 76 76 75 72 72 75 78 82 90 93 95 98 99 99 97 94 93 95
39 41 42 44 46 47 46 44 45 47 50 53 54 54 53 53 54 56 58 58 57 57 57 56 56 58 61 64 65 67 70 74 78 83 86 90 92 95 98 99 99 100 99 99 99 100 100 100 100 100 100 100 100 100 100 100 99 98 98 95 91 87 82 79 78 76 77 78 78 78 74 71 72 73 77 84 90 94 96 96 97 99 96 91 90
41 43 45 47 48 48 48 48 49 52 54 55 54 54 54 55 57 58 58 58 58 59 59 58 60 63 65 66 68 71 75 79 83 87 89 91 94 97 99 99 100 100 99 99 99 99 100 100 100 100 100 100 100 100 100 101 100 99 99 100 99 96 91 86 82 80 80 80 80 79 78 74 70 68 68 70 73 81 88 92 93 96 95 90 86
43 45 47 48 47 47 49 50 51 54 55 54 54 55 56 57 58 58 58 59 60 61 61 62 64 66 67 69 72 76 80 84 87 89 92 95 97 98 99 99 100 100 100 100 100 100 100 101 100 100 100 100 99 100 100 100 100 100 99 100 100 100 99 95 91 87 85 85 85 85 83 80 75 71 70 67 62 62 70 79 85 88 89 86 82
43 44 45 45 46 49 52 52 53 54 54 54 54 56 58 58 58 58 60 61 63 64 66 67 67 69 70 73 77 81 84 87 89 92 95 97 98 98 99 100 100 100 101 101 100 100 100 100 100 100 100 100 99 99 100 100 100 100 100 100 100 100 100 99 98 96 94 92 91 91 91 89 85 81 77 73 68 62 60 64 69 74 77 76 76
43 43 44 44 46 51 54 54 54 53 54 55 56 57 59 59 60 61 63 65 67 69 69 70 70 72 75 78 81 84 87 89 92 95 97 98 99 99 99 100 100 100 101 101 100 101 100 99 100 100 100 100 98 98 100 100 99 100 100 100 100 100 100 100 100 99 99 98 96 96 96 94 93 91 87 82 78 71 65 64 64 65 66 65 66
40 42 43 44 48 53 55 54 53 54 55 56 58 60 59 60 63 65 67 69 72 72 72 73 74 77 79 82 85 88 91 93 95 97 98 99 100 100 99 100 101 100 101 101 101 101 100 100 100 100 101 100 96 94 98 101 100 99 100 99 100 100 99 100 100 100 99 99 98 99 100 98 97 96 94 94 90 82 73 69 70 70 69 67 66
37 39 42 46 50 53 54 53 52 54 56 58 60 61 61 63 66 69 71 74 75 75 76 77 79 81 83 85 88 91 93 95 97 98 99 100 100 100 100 100 101 100 101 101 100 99 100 100 99 99 101 101 97 92 93 98 100 100 100 99 100 100 100 100 100 99 99 99 99 99 99 100 100 98 98 99 99 93 83 75 73 77 79 82 81
36 39 43 48 51 53 55 54 54 55 58 60 62 62 64 68 71 74 76 78 78 79 79 81 82 84 86 89 91 94 96 98 100 100 100 100 100 100 100 99 100 101 100 98 97 98 99 99 99 99 98 99 99 96 94 97 100 100 100 100 100 100 100 100 100 99 99 100 99 99 99 100 100 99 99 100 100 99 95 86 80 80 84 87 86
37 41 45 48 51 54 55 55 56 58 61 63 65 66 69 73 75 78 79 80 82 83 83 84 85 87 90 92 93 95 97 100 101 101 100 100 100 100 100 100 100 100 99 97 97 99 99 97 96 96 92 92 98 99 97 99 99 95 95 98 100 100 100 100 100 100 100 100 100 99 99 100 101 100 99 100 100 100 100 96 91 88 89 89 83
38 42 46 49 52 54 56 57 58 61 64 67 69 71 73 76 78 80 82 84 85 85 86 87 89 91 93 94 94 96 99 100 101 101 100 100 100 100 100 100 100 99 100 100 99 100 101 96 92 90 86 85 92 94 92 95 97 95 95 98 100 100 99 99 99 99 99 99 99 99 95 93 95 98 100 100 99 100 100 99 98 96 94 91 85
40 44 48 51 54 54 56 59 61 64 68 71 72 74 75 77 80 83 85 87 87 87 89 91 94 95 95 95 97 99 100 100 101 101 101 100 100 100 100 100 100 100 101 100 99 99 98 92 87 85 82 80 83 86 87 91 95 97 99 99 100 100 99 97 98 99 99 97 97 99 97 92 88 90 96 100 100 100 100 99 100 97 91 88 87
41 46 49 52 55 57 59 62 64 68 72 74 75 76 76 79 84 87 88 89 89 91 94 96 97 97 97 98 100 101 101 101 100 100 101 102 101 100 100 100 101 101 99 98 97 95 90 87 86 83 80 77 78 80 85 89 92 95 98 100 100 100 98 97 99 99 99 98 96 96 97 96 92 89 90 95 98 100 100 100 100 98 93 90 91
43 47 49 51 56 59 61 63 67 72 75 77 77 77 79 83 88 89 91 93 94 96 97 98 99 99 99 100 101 101 101 101 100 101 102 103 102 100 100 100 100 98 96 96 94 90 87 88 87 83 79 76 77 80 84 86 88 92 97 99 100 100 99 99 101 100 99 100 100 97 95 95 96 93 90 90 92 95 97 98 98 99 99 98 97
45 48 49 53 58 62 63 66 70 74 78 79 79 80 83 88 90 91 94 98 98 99 99 100 99 100 100 99 98 99 99 99 100 101 102 103 102 100 99 99 96 93 94 96 93 89 89 90 87 83 81 80 79 82 85 86 85 88 93 97 98 100 99 99 100 100 99 99 100 99 95 93 93 92 91 90 90 89 92 94 93 94 97 99 100
48 50 52 55 61 65 67 70 73 78 81 82 82 84 87 89 90 93 98 100 100 100 100 100 100 100 100 99 97 96 97 98 98 99 99 101 102 100 99 97 93 92 94 95 94 92 93 92 87 86 87 86 82 83 88 89 85 85 91 95 96 97 100 100 100 100 100 100 100 98 95 93 93 92 93 94 92 88 88 89 91 95 99 100 100
50 53 55 59 63 67 71 75 78 81 83 84 85 87 89 91 92 95 99 100 100 100 100 100 100 99 99 98 98 97 97 97 96 96 97 99 100 100 99 97 95 95 96 97 98 97 95 94 91 90 92 90 85 83 88 92 90 89 94 96 95 96 99 100 100 100 99 100 100 99 98 97 96 95 95 97 96 90 87 84 83 89 97 100 100
52 55 59 63 67 72 76 80 82 84 85 87 88 89 91 93 95 97 100 100 100 100 100 100 100 99 99 99 99 98 97 97 97 97 97 97 98 99 99 99 99 100 100 99 100 99 98 98 97 96 96 95 91 88 90 93 95 97 100 99 97 99 100 99 100 100 100 100 100 99 100 100 98 95 94 96 97 95 92 89 84 87 95 100 100
55 59 62 65 70 76 80 83 85 85 87 88 89 90 92 95 96 98 100 100 100 100 100 100 99 99 100 100 99 98 97 97 97 97 96 96 96 98 100 101 101 102 102 101 100 100 100 100 99 99 100 99 97 97 97 98 100 100 100 100 99 100 100 100 100 99 100 100 98 95 96 95 93 93 92 93 95 95 96 96 93 92 96 101 100
59 61 63 67 72 77 80 83 84 85 88 89 89 90 93 95 97 99 100 100 101 100 100 100 100 100 100 100 99 98 98 98 97 96 96 96 95 97 101 102 101 100 100 100 100 100 101 100 100 100 100 100 100 100 100 100 100 100 100 100 100 100 100 100 100 101 99 95 91 91 92 92 92 95 96 94 93 94 96 97 96 94 96 100 100
62 65 67 70 74 76 79 83 84 86 88 89 88 90 91 91 94 98 101 100 100 100 100 100 100 100 101 102 101 99 98 98 97 96 95 94 94 96 98 99 99 99 98 97 98 100 100 101 100 100 100 101 101 100 100 100 100 100 100 100 99 100 100 100 100 97 92 89 91 93 95 95 97 99 100 99 98 97 97 96 96 97 98 100 100
65 68 71 73 74 77 79 82 85 87 88 87 87 88 87 87 91 97 101 101 100 100 100 100 100 101 101 102 101 100 99 98 96 95 95 94 94 93 92 94 97 98 97 97 99 100 100 101 101 100 100 100 100 100 100 100 100 100 100 100 100 100 100 101 101 96 90 92 96 97 97 98 99 98 100 101 101 100 100 99 98 98 97 98 99
Wind_Speed
19 24 22 25 28 24 21 24 27 28 27 27 26 26 26 26 28 29 30 31 31 31 30 28 26 25 23 22 21 21 21 21 21 21 16 13 12 12 13 15 13 11 11 11 12 13 14 14 15 16 16 17 18 20 21 21 22 22 21 22 22 21 20 19 18 19 20 18 17 19 20 20 19 18 18 19 20 20 20 21 22 22 21 21 20
19 22 21 24 25 20 18 22 25 25 25 23 22 24 26 27 29 30 31 31 30 31 31 30 31 31 29 26 24 22 22 22 23 23 20 19 17 15 16 16 13 11 10 11 13 13 14 15 15 15 15 16 18 20 21 21 21 22 22 22 21 21 21 20 19 18 17 15 13 12 14 17 16 16 18 18 19 20 20 21 22 23 23 23 22
15 16 19 23 23 19 20 24 24 23 23 21 22 24 24 26 30 32 32 31 30 31 31 31 32 31 31 30 29 26 22 22 23 24 22 22 22 21 21 20 17 12 9 10 12 13 15 16 16 16 16 16 17 19 20 21 22 23 23 23 22 21 21 20 19 18 17 16 14 8 6 8 9 11 16 19 19 18 19 22 22 22 23 23 22
12 12 16 21 21 18 20 25 25 23 22 21 22 23 22 24 30 34 33 32 31 30 29 30 30 28 29 29 30 28 25 22 22 23 22 22 23 22 22 20 17 12 9 9 10 13 15 16 17 17 17 16 17 18 19 21 22 23 24 25 25 22 20 20 20 21 20 15 8 4 4 4 4 4 8 13 17 19 20 22 22 20 19 20 20
12 11 14 19 21 20 19 21 23 23 22 23 24 24 23 25 28 31 32 31 28 27 27 27 28 29 29 28 27 27 26 23 22 21 21 21 21 20 18 17 16 14 12 12 13 14 16 16 17 17 17 18 17 18 18 20 22 24 25 26 27 24 22 20 19 21 23 19 11 6 4 2 3 5 7 7 10 15 19 20 21 19 16 15 16
13 11 14 19 21 22 21 21 22 21 22 24 26 25 25 26 27 28 30 29 25 26 28 28 28 31 31 28 24 22 20 19 21 23 21 19 19 19 20 20 19 16 13 15 17 18 17 15 16 17 17 19 19 19 19 19 21 23 25 26 28 27 26 23 20 21 23 24 20 14 9 7 6 7 5 3 5 7 12 13 16 18 16 14 13
12 11 15 19 20 21 21 21 22 22 23 25 26 25 24 26 27 27 28 27 24 26 27 27 28 28 30 29 22 18 18 17 20 24 22 20 18 16 17 18 18 17 16 17 19 20 20 18 17 18 18 19 20 20 20 20 20 21 24 27 29 29 28 25 21 20 22 25 25 20 18 17 14 9 4 2 3 5 7 7 8 11 15 16 15
9 10 14 18 20 20 19 21 23 25 26 26 25 23 23 25 26 26 26 25 24 25 25 24 24 24 25 26 22 19 19 19 21 23 21 21 20 18 17 18 18 18 18 19 20 21 22 22 20 18 18 19 20 22 22 21 21 22 23 27 31 31 30 26 23 19 18 21 24 22 19 20 20 17 13 8 3 3 5 6 6 7 10 12 11
10 10 13 18 20 18 19 21 22 25 25 23 23 24 24 26 26 25 24 23 23 24 24 24 23 22 21 21 21 21 20 21 23 23 22 21 20 19 19 20 21 21 21 21 22 21 21 23 22 21 22 23 23 24 24 24 24 24 25 27 31 33 32 30 26 21 19 18 20 19 18 19 21 20 19 15 9 5 5 5 7 8 7 10 11
9 12 15 18 19 19 21 22 22 23 23 23 24 24 25 25 24 23 23 23 23 22 23 24 24 22 20 20 21 21 20 21 22 22 22 20 20 20 19 20 20 21 22 22 22 22 22 24 24 25 25 24 23 25 27 28 27 26 26 27 29 32 33 32 29 25 22 20 18 19 18 16 15 14 14 13 10 8 6 4 8 8 6 9 12
8 13 15 17 19 20 21 22 22 21 21 23 24 24 24 23 22 22 23 23 23 22 22 22 23 22 21 21 21 21 20 20 21 21 22 21 21 20 20 20 20 20 22 22 23 23 24 25 25 26 26 26 26 27 29 30 29 26 26 27 30 31 32 32 31 28 25 23 20 21 21 17 14 12 12 13 9 7 6 4 8 12 12 14 15
8 10 12 14 17 17 20 22 21 19 21 22 22 22 22 21 21 23 23 23 22 22 22 21 23 23 22 22 22 22 21 21 23 23 23 22 22 22 21 21 22 22 23 23 24 24 25 26 26 26 27 27 26 26 28 28 27 26 25 26 29 31 31 30 29 28 26 24 22 22 21 19 18 16 15 15 13 11 8 4 6 11 11 14 18
7 8 10 12 14 17 20 21 19 19 22 22 20 21 22 21 20 21 22 23 22 22 22 21 22 22 21 22 21 21 22 22 22 22 22 22 22 22 22 22 23 23 23 24 24 24 25 25 25 24 24 25 26 26 27 28 28 26 24 23 25 27 28 27 26 27 27 24 22 23 22 20 20 18 16 16 16 15 11 5 6 10 6 8 13
7 8 10 11 14 18 19 17 18 19 21 22 21 20 21 23 22 21 22 24 23 21 22 21 21 21 20 21 21 21 21 21 20 20 21 22 22 22 23 23 24 24 24 24 24 23 23 24 24 25 25 26 26 26 27 27 26 22 21 21 24 25 24 23 23 24 26 25 22 23 24 22 22 22 20 18 17 17 14 8 6 8 7 8 10
6 8 7 11 17 18 17 16 17 20 18 19 21 21 20 21 24 22 19 21 22 21 21 21 21 21 20 21 20 20 20 19 20 20 21 22 22 23 24 24 24 24 24 24 23 23 23 23 23 23 23 23 23 23 24 25 23 21 21 22 24 24 23 23 22 21 20 20 19 18 21 21 21 21 20 19 17 16 16 16 11 6 5 6 6
8 10 6 12 17 17 14 17 19 20 18 16 18 21 20 21 26 24 17 17 21 21 21 22 21 21 21 21 20 19 19 20 21 21 21 22 23 23 24 24 23 23 23 23 23 23 23 23 23 22 22 22 22 23 24 24 22 20 20 20 22 23 22 23 24 22 19 17 17 17 18 20 20 19 18 18 17 15 14 16 15 10 6 4 4
8 11 8 12 16 14 12 16 20 19 17 18 18 18 18 21 25 25 21 19 21 21 22 22 21 21 22 20 20 20 20 21 22 22 23 23 23 23 23 23 23 23 23 23 23 24 24 24 24 24 24 23 24 24 25 25 23 22 20 20 22 22 21 22 24 23 21 18 16 17 19 21 23 22 21 20 19 19 17 15 15 13 10 6 4
7 11 12 11 10 10 13 18 20 15 13 18 22 22 18 17 17 19 20 20 21 21 21 22 22 21 21 20 20 21 21 22 22 23 23 23 23 23 23 24 24 24 24 24 24 24 24 24 24 24 24 24 24 24 24 25 24 23 22 23 23 22 21 21 22 23 23 21 17 16 16 18 21 23 25 25 23 23 22 20 18 16 15 11 7
5 8 13 13 5 8 14 19 17 12 13 18 22 24 21 16 14 15 17 19 20 20 20 21 22 22 21 21 22 22 22 23 23 23 23 24 24 24 24 25 25 24 24 24 24 25 24 24 24 24 24 24 23 24 24 25 25 25 24 23 24 23 21 21 21 22 22 22 20 18 17 16 18 20 22 24 25 25 24 23 22 21 19 17 14
5 6 12 14 9 13 17 17 13 14 17 18 19 22 21 18 17 17 17 18 19 19 20 20 21 21 21 22 23 23 23 24 23 23 24 24 25 24 24 24 24 24 24 24 24 24 24 24 23 23 24 24 24 24 24 25 26 27 26 25 25 25 24 21 20 21 22 22 22 22 21 19 19 20 21 22 23 24 24 23 22 22 21 20 19
5 8 11 10 11 16 17 14 15 17 18 19 21 22 18 16 17 16 17 18 18 19 19 20 20 20 21 22 23 24 24 23 23 24 24 25 25 24 24 24 24 24 24 24 24 24 24 24 24 24 24 24 24 24 24 24 25 26 26 26 26 27 28 25 23 23 23 22 22 22 22 22 22 23 25 25 24 23 24 24 23 23 24 22 20
3 7 12 11 11 14 15 14 16 18 16 17 21 22 18 17 17 17 17 17 18 19 19 19 20 20 20 22 23 24 24 24 24 25 25 24 24 24 24 24 24 24 24 23 24 23 24 24 24 24 24 25 24 24 24 24 25 26 26 25 24 24 26 26 25 26 26 25 25 23 21 21 22 25 27 28 27 25 24 24 24 25 26 26 24
3 7 12 14 13 12 13 16 16 15 15 16 17 19 20 21 19 18 18 17 17 18 18 19 19 19 21 22 23 23 24 24 25 25 24 24 25 25 25 25 24 24 24 24 24 24 24 24 24 25 25 25 24 24 24 24 25 26 26 26 26 25 25 25 25 26 26 27 28 27 26 23 21 22 26 27 28 27 27 25 24 24 24 25 26
4 7 11 13 14 13 13 16 14 13 15 16 16 16 18 20 20 19 18 17 17 17 18 18 19 20 21 21 22 23 23 24 24 24 25 25 26 25 25 24 24 24 24 24 24 24 24 24 24 24 24 24 25 25 25 25 25 26 26 26 26 26 25 25 25 26 26 25 26 27 27 26 25 24 24 25 25 27 29 29 27 24 23 23 24
4 7 8 9 11 13 14 13 10 14 19 17 15 16 17 20 21 20 19 18 18 17 17 18 19 20 21 21 22 23 23 23 24 25 25 25 26 26 25 24 24 25 25 25 25 25 24 24 24 24 24 25 25 25 25 26 26 26 26 26 25 25 26 25 26 26 26 25 25 25 25 25 25 26 25 24 25 26 27 28 28 27 25 25 25
4 6 7 7 10 13 17 13 9 16 20 14 12 14 17 20 21 21 21 21 20 19 18 18 19 20 21 21 22 22 22 23 24 25 25 25 25 26 25 25 25 25 26 26 26 25 25 25 25 25 25 26 26 26 26 27 27 27 26 26 26 26 26 27 27 28 29 29 28 27 26 24 24 25 25 24 24 25 24 24 25 25 25 25 26
4 5 5 7 10 14 17 17 16 19 16 9 12 17 18 20 21 21 22 22 21 20 20 20 19 20 20 20 21 22 23 23 24 24 25 25 26 25 25 25 25 25 26 26 26 26 26 26 26 26 26 26 26 27 27 27 27 28 28 28 28 27 27 27 27 28 29 30 30 29 27 26 25 24 24 24 24 24 24 23 23 25 26 27 26
5 5 4 5 9 13 15 15 18 21 17 14 17 19 18 20 21 21 22 22 22 22 22 21 20 20 20 20 20 22 23 23 24 24 25 26 26 26 25 26 26 26 26 26 26 27 27 27 28 28 27 26 26 27 27 27 27 28 28 28 28 28 28 28 29 28 27 26 27 27 27 27 27 25 23 22 22 23 25 27 28 26 26 27 26
5 5 4 3 7 13 15 14 15 19 20 20 19 18 18 19 20 21 22 22 22 23 23 22 21 21 20 20 21 21 22 23 23 24 25 26 26 27 26 26 26 26 27 28 28 29 29 30 30 30 30 29 28 28 28 27 28 28 28 29 28 27 27 27 28 29 28 27 27 28 28 28 29 29 27 24 23 23 24 24 24 23 20 19 19
5 5 4 4 7 14 17 16 15 16 19 20 19 18 19 19 20 21 22 22 23 23 23 22 22 22 21 22 22 21 22 23 23 24 25 26 27 27 27 27 27 28 29 30 30 30 30 31 32 32 33 32 30 29 28 28 28 28 28 29 29 28 28 28 28 28 28 29 29 30 31 31 31 31 30 28 26 26 26 23 20 20 19 16 16
5 5 5 5 7 13 17 18 17 16 18 19 18 18 19 20 21 21 22 22 22 22 23 23 23 23 23 23 23 22 22 23 24 24 25 26 27 27 27 28 29 30 31 30 30 30 29 30 31 33 33 32 31 30 28 28 28 28 28 29 29 29 30 29 30 30 30 30 31 31 32 32 32 33 33 32 31 29 28 27 24 21 20 19 19
5 5 5 5 6 10 14 17 17 18 18 18 18 19 19 20 20 21 21 22 22 22 23 23 24 24 24 24 23 23 23 24 25 25 25 25 27 27 28 29 29 30 31 30 30 30 30 30 31 32 32 33 34 32 29 28 28 28 27 27 29 29 30 31 31 31 32 31 31 32 32 33 34 35 35 36 37 36 32 29 27 25 24 24 24
5 5 5 5 6 9 13 15 16 17 18 18 18 19 19 19 20 21 21 22 22 22 23 23 24 24 24 24 24 24 25 26 26 25 25 25 26 27 28 29 29 30 29 29 30 30 30 30 30 31 33 34 35 33 29 27 28 28 26 26 27 29 30 32 32 32 33 32 31 31 31 33 34 35 34 35 39 42 39 35 32 29 29 29 29
5 5 6 6 7 10 14 16 16 16 17 18 18 18 19 19 20 20 20 22 22 22 23 23 24 24 25 25 25 25 26 26 26 26 26 25 26 27 28 28 28 28 28 29 30 30 30 29 29 30 32 33 34 33 29 26 26 26 25 24 25 27 29 31 32 32 32 33 33 32 31 32 33 33 34 34 36 40 42 40 38 36 36 36 35
5 5 6 7 8 11 14 15 15 15 16 17 17 18 19 19 19 20 20 21 22 22 23 23 24 24 25 25 26 26 27 27 28 27 26 26 26 27 27 27 27 26 26 27 29 29 30 30 29 29 30 32 33 32 29 26 25 24 23 22 24 26 27 29 30 31 33 34 34 33 33 33 32 32 33 33 33 35 38 39 39 39 40 40 41
5 6 7 8 8 11 14 14 13 15 16 17 18 18 19 20 20 20 21 21 21 22 22 23 23 24 25 25 26 27 28 28 28 27 26 26 26 26 27 26 26 26 25 26 27 28 28 30 30 29 29 31 33 32 29 25 23 22 21 21 24 26 28 29 30 32 33 35 35 34 34 35 34 34 33 31 31 32 34 36 36 37 38 39 41
7 8 8 8 10 12 13 14 14 14 15 16 18 18 19 21 21 20 21 20 20 21 21 22 23 24 25 26 27 28 29 29 28 28 27 26 25 26 26 25 25 25 26 26 27 29 28 28 29 30 28 30 32 33 29 24 21 20 19 20 22 24 27 29 31 32 33 33 34 35 35 35 34 34 33 31 29 30 32 35 35 35 35 35 36
8 8 8 9 11 11 12 14 15 14 14 15 17 18 19 21 21 20 20 20 20 21 21 22 24 25 26 27 27 28 29 28 28 28 28 27 26 26 25 23 23 25 26 26 28 29 29 28 28 29 29 29 30 30 26 21 18 17 16 16 18 21 23 25 27 29 30 31 33 34 35 35 34 33 33 31 30 29 31 33 34 34 34 34 34
9 9 9 10 11 11 13 14 14 14 15 15 16 18 19 20 20 20 20 20 20 21 21 22 24 26 27 27 27 28 28 28 28 28 28 28 26 24 22 22 22 23 25 27 27 28 29 30 29 28 29 28 26 25 24 18 16 17 19 15 12 15 19 21 22 23 24 26 28 28 29 31 32 33 32 30 30 30 30 31 32 31 30 32 34
9 9 9 10 11 12 13 13 12 13 14 15 16 17 18 19 19 19 19 20 21 21 22 23 25 26 27 27 27 28 29 29 29 29 29 27 25 23 21 21 22 23 24 26 26 26 27 28 28 26 26 27 24 23 24 21 17 20 23 23 20 15 13 15 17 17 17 19 21 23 23 23 25 28 30 29 29 29 31 31 30 27 28 31 33
10 10 10 10 11 11 12 12 12 14 14 14 15 16 18 19 19 19 20 20 21 22 23 24 25 25 27 27 28 28 29 29 29 29 28 27 25 23 22 22 22 22 22 24 25 25 24 24 25 24 23 24 23 23 23 21 20 21 23 24 23 22 20 18 17 15 15 16 18 19 21 20 21 23 25 27 28 27 28 30 31 31 32 33 31
10 10 10 10 11 12 12 12 13 13 13 13 14 16 18 19 19 20 21 21 21 22 23 24 24 25 27 28 28 28 28 29 28 27 26 26 26 24 23 23 22 21 22 23 23 22 21 22 23 22 21 22 22 22 21 20 20 22 23 23 23 23 23 22 20 18 17 17 17 19 20 20 20 21 22 24 27 27 28 29 31 33 34 31 27
11 11 11 11 12 13 13 13 12 12 12 12 13 16 18 19 19 20 20 20 21 21 22 23 25 26 28 29 29 28 28 28 28 27 26 26 26 25 24 22 20 20 21 21 20 20 20 21 20 20 20 22 22 21 21 19 20 23 24 24 24 23 23 23 21 19 20 20 19 19 21 21 20 20 21 22 23 25 27 29 31 31 30 29 27
11 12 12 12 12 13 13 13 13 13 12 12 13 16 18 19 20 20 19 19 20 20 21 24 26 27 28 29 29 28 28 27 26 26 25 25 25 24 23 21 20 20 19 18 18 19 19 18 18 19 21 21 21 22 22 20 20 23 25 25 25 24 23 23 22 21 22 23 22 21 20 20 20 20 21 20 21 22 24 25 26 28 29 28 26
12 12 12 12 13 14 14 14 15 14 13 13 13 15 17 20 20 19 18 18 19 20 22 25 26 27 28 29 29 28 26 25 25 25 24 24 23 22 21 20 19 19 19 18 18 19 18 15 15 17 19 20 20 22 23 21 21 24 25 25 25 25 24 23 22 23 23 23 22 22 21 20 19 20 20 20 20 20 21 21 21 22 25 28 27
12 12 12 13 13 13 14 15 15 14 13 13 13 14 17 19 19 18 18 19 20 21 23 24 25 27 27 27 27 26 25 23 23 23 23 22 21 20 20 20 19 19 19 19 18 17 16 14 13 15 18 18 19 21 22 22 23 25 26 26 26 25 24 23 23 23 22 22 22 22 21 19 18 19 19 20 20 19 19 21 21 20 21 25 26
15 14 13 13 13 13 14 15 16 15 14 13 14 15 16 17 18 18 18 19 20 21 23 24 25 27 26 25 24 23 23 23 23 22 21 21 20 19 19 19 19 19 19 18 17 16 15 13 13 16 17 17 18 19 20 22 24 25 25 26 26 26 24 23 24 24 24 24 23 22 20 18 16 16 17 17 18 19 19 21 22 22 22 24 26
16 15 14 14 14 15 15 16 16 15 14 14 15 15 14 15 16 17 17 18 20 21 21 23 25 25 24 22 21 21 22 23 23 22 21 21 20 20 19 19 19 19 20 19 17 15 14 13 14 16 16 16 16 17 19 22 25 25 25 25 26 25 24 23 23 24 25 23 21 18 17 14 12 13 12 11 12 14 17 20 21 20 20 22 25
16 16 15 16 16 17 16 17 17 15 15 15 16 15 14 14 15 16 16 17 20 20 21 23 23 22 21 21 20 19 20 21 22 22 21 21 20 19 19 19 18 18 18 18 17 15 14 14 15 15 15 15 16 18 20 23 24 24 24 24 24 23 22 21 22 22 20 17 14 13 14 14 14 13 12 12 12 12 9 11 15 16 18 20 23
17 16 16 17 18 18 17 17 17 16 15 15 15 15 14 14 15 14 14 16 18 20 21 22 20 20 20 20 20 20 20 20 21 22 22 22 20 18 17 17 17 16 16 15 15 14 14 15 16 16 15 15 17 19 21 22 22 22 22 23 22 20 17 18 20 17 13 12 12 12 13 15 15 14 13 13 14 14 13 11 7 7 11 17 21
18 17 17 17 18 17 18 18 18 17 16 16 16 16 15 15 14 13 14 15 17 18 20 21 20 20 20 19 19 20 20 19 19 19 20 22 23 21 18 15 14 16 16 15 14 13 14 15 16 16 16 17 17 19 20 20 21 22 22 22 19 16 15 17 17 14 13 14 14 13 13 14 15 14 13 14 14 14 14 14 13 10 5 0 6
Wind_Direction
327 328 334 340 336 336 348 356 354 351 348 346 346 348 350 354 356 355 351 348 346 344 341 337 332 326 318 310 303 299 299 299 298 298 301 304 291 282 292 299 296 298 311 320 325 328 331 333 331 330 329 322 314 310 308 308 306 304 303 302 301 300 297 295 294 292 290 288 284 282 281 281 279 272 261 252 250 253 254 253 249 247 248 247 244
327 330 340 341 331 329 347 355 348 344 344 344 348 353 352 353 353 350 347 344 342 339 337 335 333 331 328 323 314 302 293 292 296 297 298 302 299 290 287 284 276 278 297 314 320 322 325 327 328 329 328 323 317 312 308 306 305 303 300 296 293 290 287 286 287 285 283 283 285 285 283 284 279 268 260 255 251 248 247 250 251 249 246 247 247
331 336 343 337 326 330 351 354 346 343 345 349 355 353 350 350 350 348 344 341 337 333 329 325 323 324 326 325 322 316 303 290 288 288 287 287 287 282 275 267 258 260 281 306 313 316 321 322 323 325 324 321 319 316 312 308 305 303 300 296 291 285 280 279 279 279 278 279 285 288 281 289 285 266 257 252 248 243 239 239 244 249 248 248 248
331 338 341 334 327 336 356 355 347 349 353 354 355 348 344 345 343 343 341 337 333 326 321 319 318 319 319 320 322 322 318 308 293 285 281 277 274 270 265 258 255 264 289 308 309 312 318 320 319 320 319 318 316 315 313 310 306 303 299 296 293 288 280 276 273 275 280 283 284 272 278 294 275 278 283 267 253 242 237 233 234 242 249 250 250
329 334 339 335 328 329 349 358 351 353 355 352 349 341 337 337 336 339 338 333 328 326 327 331 332 330 323 317 319 322 324 326 318 303 289 281 281 282 282 282 283 285 290 298 298 298 303 308 313 315 316 315 311 310 309 307 305 301 299 294 291 288 283 278 271 270 275 279 278 266 276 279 259 322 339 305 269 241 234 234 230 230 234 240 246
328 333 338 335 332 336 355 7 355 349 349 346 342 337 337 336 335 338 336 330 328 332 337 339 337 339 335 322 316 323 331 336 336 331 323 310 303 300 297 298 302 300 294 293 294 295 297 299 304 307 310 311 307 305 304 304 302 298 296 294 290 288 285 279 270 266 269 274 276 271 264 258 274 324 340 315 302 261 236 231 228 228 228 227 231
327 334 342 338 342 353 6 9 356 346 343 341 336 334 338 339 336 335 332 327 329 332 334 335 335 338 340 333 328 335 339 337 337 338 341 338 332 324 313 307 308 310 307 301 300 302 305 305 302 299 302 305 302 299 299 300 300 298 295 292 289 288 285 279 269 262 262 265 270 272 271 266 269 283 277 260 326 297 255 226 226 233 229 228 233
328 337 347 344 345 355 7 8 356 344 339 339 339 338 340 339 335 333 330 326 329 331 328 331 337 335 334 335 338 341 338 336 336 333 332 334 333 330 324 317 313 313 311 308 306 304 303 303 302 298 298 301 300 296 293 293 294 293 293 291 288 286 284 282 276 264 253 254 260 268 272 268 267 270 266 257 251 291 286 265 274 271 234 229 240
337 347 347 344 345 355 3 357 348 342 340 343 344 341 339 337 334 332 331 329 328 329 327 328 331 328 325 326 331 334 332 331 331 328 326 327 324 320 318 314 310 309 306 304 303 300 297 297 298 297 295 294 294 293 290 289 288 287 287 287 287 286 283 280 277 268 256 249 248 255 264 261 261 267 265 254 235 239 274 275 287 292 261 254 261
346 349 343 344 346 352 351 343 344 347 347 347 342 336 334 332 333 333 333 332 329 329 330 329 327 325 324 324 326 328 328 327 325 322 322 322 319 315 311 308 304 301 300 297 296 295 294 293 293 293 293 290 287 288 289 288 285 283 281 279 280 284 284 279 273 267 261 253 245 243 251 250 246 258 261 251 239 234 243 260 276 287 289 284 277
353 343 341 350 347 344 343 342 347 349 347 342 334 333 334 332 333 334 332 330 329 328 329 329 329 328 327 326 326 325 324 323 320 317 317 316 314 311 307 304 300 297 296 295 293 292 290 290 290 289 289 289 286 284 285 283 279 277 277 276 277 279 284 282 272 263 257 254 247 242 247 248 238 241 246 245 244 236 239 251 262 268 272 276 275
352 335 339 347 340 341 342 342 345 347 342 333 330 339 340 334 332 331 329 329 328 327 326 325 326 326 325 324 321 320 317 315 313 309 308 308 307 305 303 301 299 297 295 293 292 292 291 291 291 289 286 285 283 282 282 281 277 275 274 274 276 277 281 284 275 260 251 250 247 241 247 253 247 244 241 241 241 241 247 250 256 263 262 265 267
346 330 335 338 342 347 340 339 345 342 333 327 335 349 338 325 326 328 329 329 327 326 323 323 324 323 322 321 318 315 311 307 306 304 305 306 305 305 304 302 301 299 297 296 295 295 294 294 293 293 291 287 286 285 284 284 278 272 271 273 276 277 278 284 283 266 249 246 249 244 245 253 253 250 248 246 246 248 253 255 266 271 272 278 277
340 321 325 337 352 346 332 341 347 331 323 328 340 346 330 323 329 330 328 328 326 325 324 323 323 322 321 319 317 314 310 308 309 309 309 308 307 306 305 304 303 301 298 297 297 296 295 295 294 292 291 290 289 286 283 284 280 272 273 276 278 280 279 282 289 280 257 244 244 242 240 248 254 254 253 253 251 250 250 246 259 274 273 278 285
324 303 322 355 350 332 329 347 337 315 317 331 336 337 328 326 327 321 319 324 324 323 324 324 322 320 319 316 314 312 311 312 313 310 308 306 306 305 303 302 300 299 298 297 296 295 294 293 292 290 289 288 289 289 287 287 287 281 278 277 277 280 282 280 285 292 275 250 238 234 233 240 248 251 252 252 251 248 247 245 243 252 269 266 269
318 304 340 8 340 320 336 347 327 320 335 343 336 332 330 329 327 326 333 335 326 322 324 322 320 319 317 315 314 312 311 311 309 307 306 305 304 302 300 299 298 297 297 296 295 295 295 295 293 291 290 290 291 292 292 292 292 291 285 280 279 281 286 283 280 289 292 272 251 242 238 241 246 251 253 253 253 254 252 246 238 230 238 258 256
318 316 346 6 339 331 356 343 321 323 339 344 332 314 313 320 319 326 339 336 325 322 322 319 318 318 316 314 314 313 312 311 309 308 307 306 304 302 300 299 298 298 297 296 295 295 295 295 293 290 288 288 288 287 288 290 291 293 292 288 285 284 287 287 282 284 289 285 268 249 240 241 248 255 260 259 257 258 259 256 248 237 230 232 249
325 329 334 343 343 1 5 333 315 318 329 335 326 308 308 322 321 326 333 327 322 321 319 318 319 318 316 315 314 314 313 312 310 309 307 306 304 303 303 300 299 298 296 295 294 293 293 292 291 290 287 284 283 282 282 283 284 284 284 283 283 283 283 285 284 283 282 284 279 260 244 241 246 251 256 258 257 258 258 258 256 252 243 233 231
323 328 320 317 336 39 6 327 317 336 340 334 325 317 323 335 337 338 330 320 319 318 316 317 318 316 315 315 315 315 314 313 311 309 308 307 306 305 304 301 300 299 297 295 294 292 291 290 289 288 286 283 282 280 279 281 282 281 279 279 278 279 278 278 280 280 277 278 277 267 255 249 249 249 251 253 253 252 253 253 254 255 252 244 236
324 320 306 308 340 18 2 336 334 348 342 334 322 311 314 324 331 334 325 318 316 315 316 316 315 314 313 313 314 314 313 312 310 310 310 308 307 306 304 302 301 300 298 296 294 292 290 288 287 285 284 283 281 279 278 276 277 277 276 275 273 273 273 273 275 275 273 271 270 265 258 254 256 257 256 256 253 249 248 248 249 251 252 251 242
327 316 305 315 354 360 349 341 345 343 335 332 320 306 307 323 331 327 319 316 314 314 316 314 313 313 311 312 313 313 313 312 311 311 310 309 308 307 305 304 302 300 299 296 293 292 289 287 286 283 281 281 279 277 276 274 273 272 271 269 266 266 266 267 270 270 269 268 266 262 257 254 254 257 258 259 257 254 251 249 249 250 251 252 248
310 311 316 330 350 347 335 332 337 334 328 322 316 316 324 331 329 319 314 313 313 315 315 313 312 312 312 313 313 313 313 312 312 312 310 310 309 308 307 305 302 300 298 296 294 292 289 287 284 282 279 277 276 274 272 270 270 271 270 269 267 263 263 264 264 263 263 264 266 266 263 256 252 251 251 253 255 254 253 250 247 246 247 248 248
300 310 317 322 330 339 334 327 325 322 318 311 308 315 322 322 320 314 311 311 311 313 312 311 312 312 313 313 312 312 313 312 313 312 311 312 310 309 308 304 302 300 298 295 294 292 289 287 284 281 279 276 274 272 270 268 266 266 266 267 268 267 266 264 263 264 263 261 261 263 263 260 256 250 247 246 248 251 252 253 249 244 243 245 245
304 304 306 315 330 344 335 322 321 319 309 303 305 310 314 315 314 310 309 310 311 312 311 311 312 311 312 312 311 312 312 312 313 313 313 312 311 310 308 305 301 300 297 296 294 291 289 286 283 281 278 276 273 270 268 267 264 263 262 262 263 263 263 263 263 265 266 264 261 258 256 255 255 255 252 247 245 246 247 249 251 249 247 247 247
304 304 308 322 333 333 316 306 320 323 308 298 302 312 316 315 311 310 311 311 311 311 310 311 311 310 311 310 310 311 312 313 314 313 313 311 310 310 307 305 302 299 298 296 294 292 289 286 282 280 278 275 273 271 267 265 263 261 261 260 259 259 260 262 264 265 267 268 266 261 256 253 252 253 254 251 247 244 240 239 244 249 251 252 252
292 301 319 334 335 324 313 315 336 324 307 296 305 319 322 315 309 310 311 311 312 311 310 310 310 309 310 310 310 312 313 314 313 313 312 311 310 310 307 304 302 300 299 296 294 291 288 285 283 280 277 275 273 271 267 265 263 261 260 259 257 257 257 259 262 264 265 266 267 266 263 258 254 252 251 250 248 245 238 232 234 239 245 251 252
290 299 323 336 332 322 318 328 332 317 305 311 327 328 324 314 308 310 312 311 311 311 310 309 308 307 307 308 310 311 312 312 312 311 311 310 309 308 307 305 302 300 298 296 294 291 288 285 282 279 277 274 272 269 266 263 260 258 257 257 256 256 257 256 257 258 259 258 259 261 262 260 257 255 253 251 252 252 248 241 238 239 240 242 244
295 305 328 336 325 317 317 324 321 312 316 334 335 327 319 310 307 310 311 310 311 311 309 308 307 306 305 307 309 310 310 310 310 310 309 309 308 307 306 305 302 300 297 295 293 290 288 285 282 279 276 273 271 268 265 262 259 256 253 253 253 253 254 254 254 256 256 253 252 255 258 258 256 254 254 250 250 256 256 247 242 240 238 236 234
299 307 317 320 317 314 314 315 312 311 317 327 328 321 312 307 306 309 309 310 311 310 308 307 305 304 305 307 309 309 308 309 309 309 309 308 308 308 307 305 303 300 297 296 294 292 288 285 282 279 275 272 268 266 264 261 257 255 251 250 250 250 250 251 251 253 255 254 254 254 255 257 256 255 255 251 247 252 257 249 238 236 237 240 240
296 300 300 298 308 312 313 314 311 309 313 317 316 313 309 307 308 309 309 310 310 309 308 306 303 304 306 308 307 307 307 308 308 309 309 309 309 308 307 306 304 303 303 302 299 295 289 285 285 285 281 276 270 266 264 261 257 253 249 246 246 246 247 248 249 250 251 252 252 253 253 254 254 253 253 252 250 253 259 258 249 242 243 248 258
289 293 293 288 298 310 316 316 317 319 317 313 309 307 307 307 308 308 308 309 310 308 307 305 304 306 307 307 307 307 306 306 307 308 309 309 309 308 308 308 308 309 310 308 303 298 292 288 287 287 285 280 276 272 266 262 259 256 251 245 242 240 241 241 243 244 246 248 249 250 251 251 251 250 249 249 250 252 256 259 258 254 251 250 255
285 288 287 285 293 305 309 310 317 321 314 308 306 306 306 306 306 307 306 307 308 307 305 304 304 305 306 306 307 307 307 306 306 307 308 309 309 308 308 309 309 311 313 310 306 303 300 297 294 291 288 285 285 282 273 264 262 258 254 249 243 239 238 237 238 239 241 244 245 247 248 249 248 248 247 247 248 249 251 254 256 258 258 255 253
281 283 280 282 288 296 300 305 314 315 308 304 305 304 304 304 305 306 306 307 307 306 304 303 304 305 305 306 307 307 306 306 306 307 308 308 308 308 308 309 309 311 312 310 308 308 306 303 300 297 293 291 292 292 282 270 266 262 257 253 247 242 238 238 238 238 240 241 242 243 244 245 246 246 246 245 246 247 249 250 251 254 257 256 255
272 275 278 279 282 293 301 306 310 308 303 303 303 301 302 303 302 304 306 306 306 304 304 303 304 305 305 305 306 306 306 305 306 307 307 306 306 307 308 310 310 310 310 310 311 312 310 307 303 300 298 296 297 299 292 278 270 266 261 256 252 247 243 242 242 242 242 242 242 240 241 242 243 243 243 243 243 244 246 247 247 248 250 251 252
264 268 274 276 281 292 299 302 306 307 304 304 304 302 301 301 301 304 304 304 303 302 302 302 303 304 305 306 306 306 305 306 306 306 306 305 305 306 308 310 311 310 309 310 312 311 310 310 307 304 302 301 302 304 298 284 275 271 266 259 253 249 246 245 245 246 246 247 246 243 241 242 243 242 241 240 241 241 241 243 245 246 246 247 247
256 262 264 265 273 283 290 296 302 303 303 304 304 302 301 301 301 302 302 301 301 300 301 302 302 304 305 307 307 306 304 305 306 306 305 304 304 305 307 310 311 310 310 310 310 310 310 311 312 310 306 304 308 311 305 294 283 276 270 262 253 247 246 245 246 247 247 249 250 247 244 244 243 242 241 238 235 237 236 236 238 241 242 244 243
253 257 254 258 269 275 281 291 298 301 302 304 302 300 301 301 301 300 300 300 299 298 300 302 302 304 306 307 307 306 304 305 305 305 304 304 305 306 308 310 311 311 313 313 313 313 313 313 314 314 310 306 310 316 314 304 294 287 277 267 257 248 245 244 245 247 248 249 250 249 247 246 243 242 242 236 231 230 229 228 231 233 235 237 238
245 249 251 259 268 271 276 286 294 300 302 303 301 301 301 301 299 299 298 298 298 299 301 302 303 305 306 307 306 305 304 304 303 303 303 304 305 306 308 310 310 310 311 315 316 315 315 316 315 315 317 312 311 319 322 311 303 307 302 282 263 251 247 247 248 250 250 250 251 252 251 247 245 245 244 237 229 227 225 224 225 226 228 231 233
233 240 253 262 267 272 278 283 289 294 297 299 301 302 300 297 297 297 297 297 297 299 301 302 304 305 306 306 307 306 305 303 302 302 303 304 305 305 305 307 308 308 309 314 318 315 314 318 319 320 324 322 320 332 340 330 322 337 347 340 306 267 252 252 254 256 257 256 254 256 256 252 249 250 251 245 234 227 224 223 223 222 224 229 232
231 237 250 259 265 271 273 278 288 296 298 299 300 299 296 293 295 295 294 294 297 300 302 303 304 305 305 306 307 306 306 304 303 302 303 304 304 303 303 305 308 309 309 311 315 313 312 317 321 323 327 328 331 343 349 347 347 351 355 357 348 325 295 281 276 275 277 274 265 258 256 256 254 252 253 251 242 231 225 225 223 220 223 230 232
235 240 248 255 262 268 269 276 288 294 295 297 298 296 292 292 294 293 291 294 299 302 303 304 304 304 305 306 307 307 307 306 305 304 304 304 305 304 304 306 309 310 310 310 312 312 313 317 321 324 328 331 336 342 344 346 352 352 350 351 347 339 332 324 317 311 304 297 289 274 261 255 255 253 251 250 246 239 231 227 225 225 229 233 232
232 238 244 247 254 265 274 279 284 287 290 294 294 291 291 292 292 290 292 298 301 303 304 305 305 305 306 308 309 310 309 308 307 307 305 305 307 307 306 307 308 309 310 311 313 315 317 318 322 326 331 333 336 339 339 341 347 348 347 345 341 336 332 330 327 321 310 301 297 293 283 271 261 257 254 250 245 241 236 230 228 228 232 234 231
231 238 242 243 251 264 271 273 277 283 287 288 287 288 291 291 288 291 297 301 301 302 304 305 305 306 308 310 312 312 312 311 309 308 306 306 307 308 309 309 309 309 310 312 316 319 319 320 324 330 333 335 335 336 337 340 343 344 343 341 338 334 331 328 325 320 313 306 299 296 295 291 282 271 265 258 251 245 239 235 232 230 229 228 228
228 236 240 241 249 261 266 268 275 282 282 279 281 286 288 287 288 295 302 302 302 304 305 305 306 307 310 313 314 315 314 313 312 310 308 306 307 310 311 311 312 312 313 314 316 317 317 320 327 330 331 334 336 335 335 338 340 340 340 338 335 333 330 327 324 319 314 309 303 297 292 290 290 287 281 274 265 257 249 243 241 237 232 226 223
230 235 238 239 247 258 266 270 274 277 275 275 278 281 282 285 292 301 304 303 305 306 305 306 307 308 311 315 316 316 317 316 315 313 310 308 308 310 311 313 314 313 313 313 313 314 315 319 326 329 328 331 335 334 334 337 338 337 337 335 333 331 327 325 324 320 314 308 305 303 297 290 288 287 287 286 279 268 258 254 252 246 236 227 220
223 225 229 237 247 256 261 265 271 273 273 274 274 275 279 285 294 302 303 303 305 306 305 307 308 310 313 317 317 317 318 317 317 317 314 310 308 308 309 310 310 309 309 308 307 310 315 321 328 330 328 330 334 333 333 335 336 335 333 332 331 329 325 323 322 319 315 313 310 308 302 296 292 287 285 284 280 270 260 257 258 256 244 229 219
223 225 229 235 243 250 253 258 265 270 271 272 273 275 280 288 294 299 301 302 304 305 305 307 309 312 315 317 316 315 316 317 319 318 316 313 310 308 306 305 304 304 304 303 305 310 318 327 335 333 329 330 333 333 332 333 332 330 330 330 331 328 324 324 324 322 320 317 314 310 305 298 295 293 288 283 278 269 258 253 254 257 250 233 220
223 225 228 231 235 242 247 253 259 265 269 271 275 280 285 289 293 297 300 302 303 305 305 307 310 313 315 315 315 315 316 318 320 318 317 316 314 311 305 301 302 302 301 303 309 318 326 336 340 335 331 331 332 332 332 329 327 327 328 329 330 327 324 324 324 323 322 318 315 317 319 317 318 317 314 310 302 283 261 248 248 253 248 232 221
220 223 227 230 233 240 245 251 256 262 268 271 276 282 286 288 292 298 300 301 303 305 306 308 311 313 314 315 315 316 318 319 319 319 318 317 316 312 307 304 306 309 309 313 322 328 335 343 345 339 334 331 329 329 329 327 327 328 328 328 328 326 325 327 328 326 325 325 328 336 344 347 350 347 344 348 351 343 314 270 255 253 244 228 217
221 225 227 229 234 239 244 249 256 260 265 270 276 280 285 289 294 298 297 297 300 304 306 308 311 312 314 316 316 316 320 321 320 321 321 320 320 319 315 312 314 317 321 326 331 336 341 345 346 343 339 333 328 327 328 329 331 332 330 330 330 328 332 340 341 338 342 353 358 359 360 359 358 357 356 356 356 359 0 353 327 279 243 224 215
218 219 222 226 232 236 240 246 253 257 261 267 272 277 284 291 295 296 293 293 298 302 303 306 309 311 314 315 314 315 320 322 322 323 323 322 323 325 325 325 323 326 332 337 341 345 348 349 348 347 344 340 335 333 333 335 337 337 336 337 337 340 351 359 1 6 18 19 13 9 6 3 1 0 1 359 357 356 358 1 7 13 20 142 203